Weather History for Jasper, TX

Change the Weather History Date:

Friday, August 15, 2014

  Actual Average (KLFK) Record (KLFK)
Temperature  
Mean Temperature 78 °F 83 °F  
Max Temperature 91 °F 95 °F 105 °F (1951)
Min Temperature 64 °F 72 °F 59 °F (1931)
Degree Days  
Heating Degree Days 0 0  
Month to date heating degree days 0  
Since 1 June heating degree days 0  
Since 1 July heating degree days 0  
Cooling Degree Days 12 18  
Month to date cooling degree days 270  
Year to date cooling degree days 1741  
Since 1 June cooling degree days 1272  
Growing Degree Days 28 (Base 50)    
Moisture  
Dew Point 66 °F    
Average Humidity 67    
Maximum Humidity 93    
Minimum Humidity 38    
Precipitation  
Precipitation 0.00 in 0.10 in 1.21 in (1991)
Month to date precipitation 1.53  
Year to date precipitation 28.78  
Snow  
Snow 0.00 in - - ()
Month to date snowfall  
Since 1 June snowfall  
Since 1 July snowfall  
Snow Depth -    
Sea Level Pressure  
Sea Level Pressure 30.02 in    
Wind  
Wind Speed 2 mph (SSE)    
Max Wind Speed 7 mph    
Max Gust Speed -    
Visibility 10 miles    
Events      
T = Trace of Precipitation, MM = Missing Value Source: NWS Daily Summary

Daily Weather History Graph

Daily Weather History Graph

Search for Another Location

Airport:

Trip Planner

Search our weather history database for the weather conditions in past years. The results will help you decide how hot, cold, wet, or windy it might be!

Date:

Astronomy

Aug. 15, 2014 Rise Set
Actual Time 6:42 AM CDT 7:58 PM CDT
Civil Twilight 6:16 AM CDT 8:23 PM CDT
Nautical Twilight 5:46 AM CDT 8:53 PM CDT
Astronomical Twilight 5:15 AM CDT 9:25 PM CDT
Moon 11:28 PM CDT (8/15) 12:00 PM CDT (8/15)
Length of Visible Light 14h 06m
Length of Day
13h 16m
Waning Gibbous, 69% of the Moon is Illuminated
Aug 15
Waning Gibbous
Aug 17
Last Quarter
Aug 25
New
Sep 2
First Quarter
Sep 8
Full

Hourly Weather History & Observations

Time (CDT) Temp. Heat Index Dew Point Humidity Pressure Visibility Wind Dir Wind Speed Gust Speed Precip Events Conditions
12:15 AM 72.0 °F - 64.9 °F 78% 30.03 in 10.0 mi East 4.6 mph - N/A   Mostly Cloudy
12:35 AM 71.8 °F - 64.8 °F 78% 30.03 in 10.0 mi ENE 3.5 mph - N/A   Scattered Clouds
12:55 AM 71.1 °F - 64.6 °F 80% 30.03 in 10.0 mi ENE 3.5 mph - N/A   Clear
1:15 AM 70.9 °F - 64.6 °F 80% 30.03 in 10.0 mi ENE 3.5 mph - N/A   Clear
1:35 AM 69.8 °F - 64.4 °F 83% 30.03 in 10.0 mi Calm Calm - N/A   Clear
1:55 AM 67.6 °F - 64.4 °F 89% 30.04 in 10.0 mi Calm Calm - N/A   Clear
2:15 AM 67.3 °F - 64.2 °F 90% 30.03 in 10.0 mi Calm Calm - N/A   Clear
2:35 AM 68.0 °F - 64.4 °F 88% 30.03 in 10.0 mi Calm Calm - N/A   Clear
2:55 AM 68.0 °F - 64.2 °F 88% 30.03 in 10.0 mi ENE 3.5 mph - N/A   Clear
3:15 AM 67.8 °F - 64.0 °F 88% 30.03 in 10.0 mi Calm Calm - N/A   Clear
3:35 AM 67.6 °F - 64.0 °F 88% 30.03 in 10.0 mi ENE 3.5 mph - N/A   Clear
3:55 AM 67.6 °F - 63.9 °F 88% 30.03 in 10.0 mi Calm Calm - N/A   Clear
4:15 AM 67.3 °F - 63.7 °F 88% 30.03 in 10.0 mi Calm Calm - N/A   Clear
4:35 AM 66.7 °F - 63.7 °F 90% 30.03 in 10.0 mi Calm Calm - N/A   Clear
4:55 AM 65.5 °F - 63.3 °F 93% 30.03 in 10.0 mi Calm Calm - N/A   Clear
5:35 AM 64.9 °F - 62.8 °F 93% 30.04 in 10.0 mi Calm Calm - N/A   Clear
5:55 AM 65.1 °F - 62.6 °F 92% 30.05 in 10.0 mi Calm Calm - N/A   Scattered Clouds
6:15 AM 65.5 °F - 63.1 °F 92% 30.05 in 10.0 mi Calm Calm - N/A   Mostly Cloudy
6:35 AM 66.4 °F - 63.3 °F 90% 30.05 in 10.0 mi Calm Calm - N/A   Scattered Clouds
6:55 AM 66.4 °F - 63.3 °F 90% 30.06 in 10.0 mi Calm Calm - N/A   Scattered Clouds
7:15 AM 66.2 °F - 63.5 °F 91% 30.06 in 10.0 mi Calm Calm - N/A   Mostly Cloudy
7:35 AM 67.3 °F - 63.7 °F 88% 30.06 in 10.0 mi East 3.5 mph - N/A   Mostly Cloudy
7:55 AM 68.9 °F - 64.4 °F 86% 30.06 in 10.0 mi Calm Calm - N/A   Scattered Clouds
8:15 AM 70.9 °F - 65.1 °F 82% 30.06 in 10.0 mi Calm Calm - N/A   Scattered Clouds
8:35 AM 72.9 °F - 65.5 °F 78% 30.07 in 10.0 mi Calm Calm - N/A   Clear
8:55 AM 75.4 °F - 65.7 °F 72% 30.07 in 10.0 mi ESE 3.5 mph - N/A   Clear
9:15 AM 77.5 °F - 65.1 °F 65% 30.07 in 10.0 mi ESE 3.5 mph - N/A   Clear
9:35 AM 79.0 °F - 65.7 °F 64% 30.07 in 10.0 mi ESE 3.5 mph - N/A   Clear
9:55 AM 80.6 °F 82.4 °F 65.1 °F 59% 30.08 in 10.0 mi East 4.6 mph - N/A   Clear
10:15 AM 82.0 °F 83.9 °F 65.7 °F 57% 30.08 in 10.0 mi SSE 4.6 mph - N/A   Clear
10:35 AM 82.8 °F 84.5 °F 65.1 °F 55% 30.08 in 10.0 mi SSE 5.8 mph - N/A   Clear
10:55 AM 83.5 °F 85.5 °F 65.7 °F 55% 30.08 in 10.0 mi ESE 4.6 mph - N/A   Clear
11:15 AM 84.0 °F 86.8 °F 67.3 °F 57% 30.08 in 10.0 mi SSE 4.6 mph - N/A   Clear
11:35 AM 84.0 °F 87.6 °F 68.5 °F 60% 30.07 in 10.0 mi Calm Calm - N/A   Clear
11:55 AM 85.1 °F 89.4 °F 69.6 °F 60% 30.07 in 10.0 mi South 3.5 mph - N/A   Clear
12:15 PM 85.8 °F 90.4 °F 69.8 °F 59% 30.05 in 10.0 mi SW 4.6 mph - N/A   Scattered Clouds
12:35 PM 85.8 °F 90.1 °F 69.6 °F 58% 30.05 in 10.0 mi WSW 4.6 mph - N/A   Scattered Clouds
12:55 PM 86.7 °F 91.0 °F 69.1 °F 56% 30.04 in 10.0 mi West 3.5 mph - N/A   Scattered Clouds
1:15 PM 87.4 °F 89.8 °F 65.8 °F 49% 30.03 in 10.0 mi Calm Calm - N/A   Clear
1:35 PM 88.7 °F 91.1 °F 66.4 °F 47% 30.03 in 10.0 mi SW 3.5 mph - N/A   Scattered Clouds
1:55 PM 89.2 °F 92.0 °F 66.6 °F 47% 30.01 in 10.0 mi South 6.9 mph - N/A   Scattered Clouds
2:15 PM 89.2 °F 91.3 °F 65.5 °F 45% 30.01 in 10.0 mi WSW 4.6 mph - N/A   Clear
2:35 PM 90.1 °F 92.3 °F 65.8 °F 44% 30.01 in 10.0 mi WSW 4.6 mph - N/A   Mostly Cloudy
2:55 PM 90.9 °F 92.7 °F 64.6 °F 42% 30.00 in 10.0 mi SSW 4.6 mph - N/A   Scattered Clouds
3:15 PM 90.7 °F 92.1 °F 63.9 °F 41% 29.99 in 10.0 mi Calm Calm - N/A   Clear
3:35 PM 91.2 °F 92.5 °F 63.5 °F 40% 29.98 in 10.0 mi SSW 5.8 mph - N/A   Scattered Clouds
3:55 PM 91.4 °F 92.4 °F 63.5 °F 39% 29.98 in 10.0 mi SW 4.6 mph - N/A   Scattered Clouds
4:15 PM 91.9 °F 92.9 °F 63.1 °F 38% 29.97 in 10.0 mi South 5.8 mph - N/A   Clear
4:35 PM 91.9 °F 92.9 °F 62.8 °F 38% 29.97 in 10.0 mi Calm Calm - N/A   Clear
4:55 PM 91.6 °F 92.3 °F 63.0 °F 38% 29.96 in 10.0 mi SW 4.6 mph - N/A   Clear
5:15 PM 91.6 °F 92.7 °F 63.1 °F 39% 29.96 in 10.0 mi South 4.6 mph - N/A   Clear
5:35 PM 91.2 °F 92.2 °F 63.0 °F 39% 29.96 in 10.0 mi SW 4.6 mph - N/A   Clear
5:55 PM 90.9 °F 92.0 °F 63.5 °F 40% 29.96 in 10.0 mi WSW 5.8 mph - N/A   Clear
6:15 PM 90.7 °F 92.4 °F 64.4 °F 42% 29.95 in 10.0 mi WSW 4.6 mph - N/A   Clear
6:35 PM 90.3 °F 91.9 °F 64.2 °F 42% 29.95 in 10.0 mi Calm Calm - N/A   Clear
6:55 PM 90.1 °F 92.0 °F 64.9 °F 43% 29.94 in 10.0 mi Calm Calm - N/A   Clear
7:15 PM 88.9 °F 91.8 °F 66.7 °F 48% 29.94 in 10.0 mi ENE 3.5 mph - N/A   Clear
7:35 PM 87.1 °F 90.2 °F 67.6 °F 52% 29.94 in 10.0 mi Calm Calm - N/A   Clear
7:55 PM 85.3 °F 88.8 °F 68.4 °F 57% 29.94 in 10.0 mi East 4.6 mph - N/A   Clear
8:15 PM 83.7 °F 87.5 °F 69.3 °F 62% 29.95 in 10.0 mi Calm Calm - N/A   Clear
8:35 PM 81.3 °F 85.2 °F 70.9 °F 70% 29.95 in 10.0 mi Calm Calm - N/A   Clear
9:15 PM 80.6 °F 84.1 °F 70.5 °F 71% 29.96 in 10.0 mi Calm Calm - N/A   Clear
9:35 PM 80.1 °F 83.6 °F 71.1 °F 74% 29.96 in 10.0 mi Calm Calm - N/A   Clear
9:55 PM 78.6 °F - 71.4 °F 78% 29.96 in 10.0 mi Calm Calm - N/A   Clear
10:15 PM 77.4 °F - 71.6 °F 82% 29.97 in 10.0 mi Calm Calm - N/A   Clear
10:35 PM 77.4 °F - 71.8 °F 83% 29.98 in 10.0 mi Calm Calm - N/A   Clear
11:15 PM 76.5 °F - 71.8 °F 85% 29.98 in 10.0 mi East 3.5 mph - N/A   Clear
11:35 PM 76.3 °F - 71.8 °F 86% 29.98 in 10.0 mi Calm Calm - N/A   Clear
11:55 PM 75.6 °F - 71.8 °F 88% 29.99 in 10.0 mi ESE 3.5 mph - N/A   Clear